Home > Weather > Lennestadt > Past weeks

Flag for Germany Past Weather in Lennestadt, North Rhine-Westphalia, Germany — Yesterday and Last 2 Weeks

Now
63 °F

Light rain. Partly sunny.


Feels Like: 63 °F
Forecast: 51 / 64 °F
Wind: 3 mph from North

Location: Hessen

Current Time: Jun 25, 2016 at 12:35:56 PM

Latest Report: Jun 25, 2016 at 11:50 AM


Visibility: N/A

Pressure: 29.95 "Hg

Humidity: 94%

Dew Point: 61 °F

Location of LennestadtLocation

Past Weather in Lennestadt — Graph

°F

Lennestadt Temperature Yesterday

Maximum temperature yesterday: 81 °F (at 12:20 PM)
Minimum temperature yesterday: 66 °F (at 7:20 AM)
Average temperature yesterday: 71 °F

High & Low Weather Summary for the Past Weeks

 TemperatureHumidityPressure
High84 °F (Jun 23, 3:20 PM)100% (Jun 12, 7:50 AM)30.27 "Hg (Jun 12, 7:50 AM)
Low48 °F (Jun 19, 7:20 AM)43% (Jun 10, 6:20 PM)29.53 "Hg (Jun 14, 1:20 PM)
Average60 °F83%29.92 "Hg
* Reported Jun 10 11:20 AM — Jun 25 11:20 AM, Lennestadt, Weather by CustomWeather, © 2016

Note: Actual official high and low records may vary slightly from our data, if they occured in-between our weather recording intervals... More about our weather records

Advertising

Lennestadt Weather History for the Previous 24 Hours

Scroll right to see more
 ConditionsComfort  
Time TempWeatherWind HumidityBarometerVisibility
11:20 AM
Sat, Jun 25
63 °FCloudy.5 mph100%29.95 "HgN/A
10:50 AM63 °FCloudy.6 mph100%29.95 "HgN/A
10:20 AM63 °FLight rain. Partly sunny.6 mph100%29.95 "HgN/A
9:50 AM61 °FBroken clouds.6 mph100%29.95 "Hg4 mi
9:20 AM61 °FLight rain. Fog.3 mph100%29.95 "Hg1 mi
8:50 AM61 °FFog.8 mph100%29.98 "Hg1 mi
8:20 AM61 °FBroken clouds.2 mph100%29.98 "Hg5 mi
7:50 AM59 °FSprinkles. More clouds than sun.13 mph100%29.95 "HgN/A
7:20 AM61 °FThunderstorms. Cloudy.14 mph100%29.98 "HgN/A
6:50 AM59 °FCool.14 mph100%30.01 "Hg1 mi
6:20 AM63 °FRain. Fog.7 mph100%29.98 "Hg0 mi
8:50 PM
Fri, Jun 24
66 °FFog.8 mph100%30.07 "Hg1 mi
8:20 PM66 °FFog.6 mph100%30.09 "Hg1 mi
7:50 PM66 °FFog.9 mph100%30.09 "Hg1 mi
7:20 PM68 °FFog.8 mph100%30.09 "Hg2 mi
6:50 PM68 °FFog.8 mph100%30.09 "Hg2 mi
6:20 PM68 °FFog.9 mph100%30.09 "Hg2 mi
5:50 PM68 °FFog.12 mph100%30.09 "Hg2 mi
5:20 PM66 °FFog.12 mph100%30.09 "Hg1 mi
4:50 PM66 °FFog.15 mph100%30.07 "Hg2 mi
4:20 PM68 °FFog.15 mph100%30.07 "Hg1 mi
3:50 PM68 °FFog.15 mph100%30.09 "Hg2 mi
3:20 PM68 °FFog.12 mph100%30.09 "Hg2 mi
2:50 PM66 °FThunderstorms. Broken clouds.15 mph100%30.07 "Hg3 mi
2:20 PM68 °FThunderstorms. Broken clouds.8 mph100%30.12 "Hg5 mi
1:50 PM68 °FThunderstorms. Scattered clouds.13 mph94%30.09 "HgN/A
1:20 PM72 °FThunderstorms. Scattered clouds.9 mph78%30.09 "HgN/A
12:50 PM73 °FScattered clouds.14 mph78%30.07 "HgN/A
12:20 PM81 °FScattered clouds.3 mph66%30.09 "HgN/A
Weather by CustomWeather, © 2016

See weather overviewHow to use our weather pages